| time (UTC) | temp F | wind direction | speed knots | gust knots | rain 1hr in | rain 24hr in | rain mn in | humidity % | barometer mb |
| 20260509013010 | 62 | 140 | 0.9 | 4.3 | 0.00 | 0.00 | 0.00 | 48 | 1020.0 |
| 20260509011511 | 62 | 74 | 2.6 | 8.7 | 0.00 | 0.00 | 0.00 | 48 | 1020.0 |
| 20260509010027 | 63 | 175 | 0.0 | 4.3 | 0.00 | 0.00 | 0.00 | 44 | 1020.2 |
| 20260509004522 | 63 | 218 | 0.0 | 5.2 | 0.00 | 0.00 | 0.00 | 45 | 1020.3 |
| 20260509003009 | 64 | 186 | 1.7 | 4.3 | 0.00 | 0.00 | 0.00 | 43 | 1020.2 |
| 20260509001508 | 64 | 173 | 0.0 | 5.2 | 0.00 | 0.00 | 0.00 | 41 | 1020.1 |
| 20260509000008 | 64 | 68 | 0.9 | 3.5 | 0.00 | 0.00 | 0.00 | 40 | 1020.2 |
| 20260508234515 | 65 | 171 | 0.0 | 6.1 | 0.00 | 0.00 | 0.00 | 40 | 1020.3 |
| 20260508233008 | 65 | 288 | 2.6 | 7.0 | 0.00 | 0.00 | 0.00 | 39 | 1020.2 |
| 20260508231501 | 65 | 235 | 2.6 | 7.0 | 0.00 | 0.00 | 0.00 | 40 | 1020.1 |
| 20260508230107 | 64 | 120 | 0.9 | 5.2 | 0.00 | 0.00 | 0.00 | 44 | 1020.0 |
| 20260508224559 | 63 | 148 | 3.5 | 8.7 | 0.00 | 0.00 | 0.00 | 42 | 1020.1 |
| 20260508223059 | 63 | 176 | 0.9 | 4.3 | 0.00 | 0.00 | 0.00 | 44 | 1020.1 |
| 20260508221559 | 63 | 120 | 3.5 | 7.0 | 0.00 | 0.00 | 0.00 | 42 | 1020.1 |
| 20260508220058 | 63 | 146 | 2.6 | 7.8 | 0.00 | 0.00 | 0.00 | 47 | 1020.2 |
| 20260508214604 | 62 | 173 | 0.0 | 7.0 | 0.00 | 0.00 | 0.00 | 45 | 1020.2 |
| 20260508213053 | 62 | 103 | 0.9 | 10.4 | 0.00 | 0.00 | 0.00 | 48 | 1020.2 |
| 20260508211550 | 61 | 83 | 2.6 | 7.0 | 0.00 | 0.00 | 0.00 | 48 | 1020.0 |
| 20260508210049 | 60 | 173 | 2.6 | 5.2 | 0.00 | 0.00 | 0.00 | 49 | 1020.1 |
| 20260508204548 | 59 | 179 | 2.6 | 5.2 | 0.00 | 0.00 | 0.00 | 50 | 1020.0 |
| 20260508203046 | 59 | 201 | 0.9 | 6.1 | 0.00 | 0.00 | 0.00 | 51 | 1020.0 |
| 20260508201543 | 59 | 238 | 1.7 | 7.8 | 0.00 | 0.00 | 0.00 | 52 | 1019.9 |
| 20260508200050 | 57 | 240 | 0.9 | 3.5 | 0.00 | 0.00 | 0.00 | 54 | 1019.9 |
| 20260508194537 | 56 | 261 | 0.9 | 6.1 | 0.00 | 0.00 | 0.00 | 53 | 1019.8 |
| 20260508193037 | 56 | 195 | 1.7 | 5.2 | 0.00 | 0.00 | 0.00 | 55 | 1019.8 |
| 20260508191534 | 56 | 247 | 0.9 | 8.7 | 0.00 | 0.00 | 0.00 | 55 | 1019.8 |
| 20260508190041 | 55 | 254 | 1.7 | 8.7 | 0.00 | 0.00 | 0.00 | 56 | 1019.6 |
| 20260508184537 | 55 | 225 | 0.9 | 8.7 | 0.00 | 0.00 | 0.00 | 55 | 1019.6 |
| 20260508183031 | 55 | 176 | 1.7 | 7.8 | 0.00 | 0.00 | 0.00 | 58 | 1019.4 |
| 20260508181529 | 55 | 288 | 0.9 | 6.1 | 0.00 | 0.00 | 0.00 | 54 | 1019.3 |
| 20260508180026 | 55 | 196 | 0.9 | 7.0 | 0.00 | 0.00 | 0.00 | 57 | 1019.1 |
| 20260508174534 | 54 | 247 | 1.7 | 7.0 | 0.00 | 0.00 | 0.00 | 58 | 1019.1 |
| 20260508173020 | 54 | 215 | 1.7 | 7.0 | 0.00 | 0.00 | 0.00 | 58 | 1018.8 |
| 20260508171518 | 54 | 204 | 0.0 | 3.5 | 0.00 | 0.00 | 0.00 | 60 | 1018.7 |
| 20260508170015 | 53 | 80 | 2.6 | 7.8 | 0.00 | 0.00 | 0.00 | 59 | 1018.6 |
| 20260508164515 | 53 | 186 | 1.7 | 6.1 | 0.00 | 0.00 | 0.00 | 60 | 1018.3 |
| 20260508163010 | 52 | 270 | 0.9 | 6.1 | 0.00 | 0.00 | 0.00 | 62 | 1018.5 |
| 20260508161510 | 51 | 253 | 0.0 | 4.3 | 0.00 | 0.00 | 0.00 | 63 | 1018.3 |
| 20260508160008 | 51 | 184 | 0.9 | 4.3 | 0.00 | 0.00 | 0.00 | 63 | 1018.2 |
| 20260508154506 | 51 | 161 | 1.7 | 7.0 | 0.00 | 0.00 | 0.00 | 63 | 1018.1 |
| 20260508153004 | 51 | 153 | 0.9 | 3.5 | 0.00 | 0.00 | 0.00 | 64 | 1018.1 |
| 20260508151502 | 50 | 186 | 1.7 | 4.3 | 0.00 | 0.00 | 0.00 | 65 | 1018.4 |
| 20260508150100 | 50 | 146 | 0.9 | 6.1 | 0.00 | 0.00 | 0.00 | 65 | 1018.0 |
| 20260508144559 | 49 | 170 | 0.0 | 4.3 | 0.00 | 0.00 | 0.00 | 67 | 1017.9 |
| 20260508143102 | 49 | 170 | 0.9 | 2.6 | 0.00 | 0.00 | 0.00 | 71 | 1017.7 |
| 20260508141554 | 49 | 147 | 0.0 | 2.6 | 0.00 | 0.00 | 0.00 | 76 | 1017.5 |
| 20260508140054 | 48 | 94 | 0.0 | 2.6 | 0.00 | 0.00 | 0.00 | 79 | 1017.4 |
| 20260508134553 | 48 | 61 | 0.0 | 0.0 | 0.00 | 0.00 | 0.00 | 80 | 1017.1 |
| 20260508133050 | 48 | 61 | 0.0 | 0.0 | 0.00 | 0.00 | 0.00 | 80 | 1016.9 |
| 20260508131547 | 47 | 61 | 0.0 | 0.0 | 0.00 | 0.00 | 0.00 | 79 | 1016.6 |
| 20260508130106 | 47 | 61 | 0.0 | 0.0 | 0.00 | 0.00 | 0.00 | 78 | 1016.7 |
| 20260508124543 | 47 | 61 | 0.0 | 0.0 | 0.00 | 0.00 | 0.00 | 76 | 1016.3 |
| 20260508123043 | 46 | 61 | 0.0 | 0.0 | 0.00 | 0.00 | 0.00 | 76 | 1016.3 |
| 20260508121552 | 46 | 61 | 0.0 | 0.0 | 0.00 | 0.00 | 0.00 | 75 | 1016.3 |
| 20260508120039 | 46 | 61 | 0.0 | 0.0 | 0.00 | 0.00 | 0.00 | 72 | 1016.3 |
| 20260508114537 | 46 | 61 | 0.0 | 0.0 | 0.00 | 0.00 | 0.00 | 72 | 1016.1 |
| 20260508113042 | 46 | 61 | 0.0 | 0.0 | 0.00 | 0.00 | 0.00 | 71 | 1016.0 |
| 20260508111534 | 47 | 61 | 0.0 | 0.0 | 0.00 | 0.00 | 0.00 | 71 | 1016.0 |
| 20260508110033 | 47 | 61 | 0.0 | 0.0 | 0.00 | 0.00 | 0.00 | 71 | 1015.7 |
| 20260508104554 | 47 | 61 | 0.0 | 0.0 | 0.00 | 0.00 | 0.00 | 70 | 1015.7 |
| 20260508103041 | 47 | 61 | 0.0 | 0.0 | 0.00 | 0.00 | 0.00 | 70 | 1015.7 |
| 20260508101529 | 47 | 61 | 0.0 | 0.0 | 0.00 | 0.00 | 0.00 | 69 | 1015.6 |
| 20260508100028 | 47 | 61 | 0.0 | 0.0 | 0.00 | 0.00 | 0.00 | 69 | 1015.5 |
| 20260508094527 | 48 | 61 | 0.0 | 0.0 | 0.00 | 0.00 | 0.00 | 69 | 1015.7 |
| 20260508093026 | 48 | 61 | 0.0 | 0.0 | 0.00 | 0.00 | 0.00 | 69 | 1015.6 |
| 20260508091524 | 48 | 61 | 0.0 | 0.0 | 0.00 | 0.00 | 0.00 | 68 | 1015.6 |
| 20260508090023 | 48 | 61 | 0.0 | 0.0 | 0.00 | 0.00 | 0.00 | 68 | 1015.7 |
| 20260508084521 | 49 | 61 | 0.0 | 0.0 | 0.00 | 0.00 | 0.00 | 68 | 1015.7 |
| 20260508083021 | 49 | 61 | 0.0 | 0.0 | 0.00 | 0.00 | 0.00 | 67 | 1015.8 |
| 20260508081518 | 49 | 61 | 0.0 | 0.0 | 0.00 | 0.00 | 0.00 | 67 | 1015.8 |
| 20260508080016 | 50 | 61 | 0.0 | 0.0 | 0.00 | 0.00 | 0.00 | 67 | 1015.7 |
| 20260508074515 | 50 | 61 | 0.0 | 0.0 | 0.00 | 0.00 | 0.00 | 67 | 1015.7 |
| 20260508073013 | 50 | 61 | 0.0 | 0.0 | 0.00 | 0.00 | 0.00 | 67 | 1015.7 |
| 20260508071513 | 51 | 61 | 0.0 | 0.0 | 0.00 | 0.00 | 0.00 | 67 | 1015.8 |
| 20260508070019 | 51 | 61 | 0.0 | 0.0 | 0.00 | 0.00 | 0.00 | 67 | 1015.9 |
| 20260508064508 | 52 | 61 | 0.0 | 0.0 | 0.00 | 0.00 | 0.00 | 66 | 1015.9 |
| 20260508063008 | 52 | 61 | 0.0 | 0.0 | 0.00 | 0.00 | 0.00 | 66 | 1015.8 |
| 20260508061508 | 52 | 61 | 0.0 | 0.0 | 0.00 | 0.00 | 0.00 | 66 | 1015.9 |
| 20260508060006 | 52 | 61 | 0.0 | 0.0 | 0.00 | 0.00 | 0.00 | 66 | 1016.0 |
| 20260508054507 | 52 | 61 | 0.0 | 0.0 | 0.00 | 0.00 | 0.00 | 67 | 1016.1 |
| 20260508053005 | 51 | 61 | 0.0 | 0.0 | 0.00 | 0.00 | 0.00 | 67 | 1016.2 |
| 20260508051505 | 51 | 61 | 0.0 | 0.0 | 0.00 | 0.00 | 0.00 | 66 | 1016.2 |
| 20260508050007 | 52 | 61 | 0.0 | 0.0 | 0.00 | 0.00 | 0.00 | 66 | 1016.1 |
| 20260508044506 | 52 | 61 | 0.0 | 0.0 | 0.00 | 0.00 | 0.00 | 65 | 1016.1 |
| 20260508043004 | 53 | 61 | 0.0 | 0.0 | 0.00 | 0.00 | 0.00 | 64 | 1016.2 |
| 20260508041505 | 54 | 61 | 0.0 | 0.0 | 0.00 | 0.00 | 0.00 | 63 | 1016.2 |
| 20260508040003 | 55 | 61 | 0.0 | 0.0 | 0.00 | 0.00 | 0.00 | 61 | 1016.2 |
| 20260508034508 | 56 | 61 | 0.0 | 0.9 | 0.00 | 0.00 | 0.00 | 60 | 1016.1 |
| 20260508033002 | 57 | 61 | 0.0 | 0.0 | 0.00 | 0.00 | 0.00 | 58 | 1016.0 |
| 20260508031601 | 58 | 61 | 0.0 | 1.7 | 0.00 | 0.00 | 0.00 | 57 | 1016.0 |
| 20260508030103 | 59 | 49 | 0.0 | 2.6 | 0.00 | 0.00 | 0.00 | 56 | 1016.0 |
| 20260508024601 | 59 | 58 | 0.0 | 1.7 | 0.00 | 0.00 | 0.00 | 55 | 1016.2 |
| 20260508023058 | 60 | 58 | 0.0 | 2.6 | 0.00 | 0.00 | 0.00 | 54 | 1016.3 |
| 20260508021559 | 60 | 54 | 0.9 | 2.6 | 0.00 | 0.00 | 0.00 | 55 | 1016.3 |
| 20260508020055 | 61 | 129 | 0.0 | 1.7 | 0.00 | 0.00 | 0.00 | 53 | 1016.4 |
| 20260508014553 | 62 | 129 | 0.0 | 1.7 | 0.00 | 0.00 | 0.00 | 52 | 1016.5 |